Hlavní strana
METAR-TAF:

METAR-TAF

Letiště :

Danville, Illinois, Spojené státy americké

zeměpisná šířka: 40-11-58N, zeměpisná délka: 087-35-44W, výška: 212 m

Aktuální stav počasí

Zpráva byla vytvořena před 16 minutami, v 00:15 UTC
Severoseverozápadní vítr 11 kt s nárazy do 19 kt
Teplota 3°C
Vlhkost vzduchu 60%
Tlak 1023 hPa
Viditelnost: 16.1 km
Jasno

METAR: KDNV 210015Z AUTO 33011G19KT 10SM CLR 03/M04 A3020 RMK AO2 T00301037

Čas: 19:31 (00:31 UTC)


TAF: chybějící

Stav a předpovědi počasí z více než 4 000 letišť (zprávy METAR a TAF).

Červené a žluté tečky na mapě představují dostupné meteorologické stanice.

Když kurzor umístíte na tečku, zobrazí se název stanice.

Pak kliknutím zobrazíte stav a předpověď počasí.

Chcete-li změnit mapu, kliknutím na zelené tlačítko se znaménkem +mapu přiblížíte, kliknutím na zelené tlačítko se znaménkem – mapu oddálíte a kliknutím na zelené šipky přejdete na sousední mapy.


METAR-TAF: